LVMGN SAAR-SABE

Flight info

Callsign LVMGN
Flight time 0h 45m
Altitude 23000
Route VASAL1G VASAL W20 MULTA W24 SNT SNT9R
Aircraft SF50/L-SDGRWY/L

Departure

Time 2026-04-24 11:36
Airport Rosario Islas Malvinas International Airport (SAAR)

Arrival

Time 2026-04-24 12:21
Airport Aeroparque Jorge Newbery (SABE)
Time Latitude Longitude Altitude Speed Heading
2026-04-24 11:27 -32.91679 -60.78142 87 ft 0 kts 110°
2026-04-24 11:30 -32.91675 -60.78138 87 ft 2 kts 324°
2026-04-24 11:31 -32.91669 -60.78171 87 ft 5 kts 287°
2026-04-24 11:31 -32.91653 -60.78222 87 ft 6 kts 316°
2026-04-24 11:31 -32.91589 -60.78212 87 ft 12 kts 18°
2026-04-24 11:31 -32.91498 -60.78170 87 ft 15 kts 20°
2026-04-24 11:32 -32.91398 -60.78190 87 ft 16 kts 324°
2026-04-24 11:32 -32.91301 -60.78276 87 ft 18 kts 323°
2026-04-24 11:32 -32.91200 -60.78372 87 ft 19 kts 323°
2026-04-24 11:32 -32.91088 -60.78469 87 ft 20 kts 328°
2026-04-24 11:33 -32.90962 -60.78539 87 ft 19 kts 341°
2026-04-24 11:33 -32.90827 -60.78565 87 ft 19 kts
2026-04-24 11:33 -32.90698 -60.78539 87 ft 18 kts 11°
2026-04-24 11:33 -32.90569 -60.78513 87 ft 18 kts
2026-04-24 11:34 -32.90444 -60.78487 87 ft 17 kts 12°
2026-04-24 11:34 -32.90325 -60.78457 87 ft 17 kts 12°
2026-04-24 11:34 -32.90207 -60.78429 87 ft 17 kts 12°
2026-04-24 11:34 -32.90094 -60.78399 87 ft 16 kts 12°
2026-04-24 11:35 -32.90051 -60.78398 87 ft 10 kts 191°
2026-04-24 11:35 -32.90261 -60.78447 87 ft 67 kts 192°
2026-04-24 11:35 -32.90913 -60.78585 234 ft 111 kts 189°
2026-04-24 11:35 -32.91750 -60.78738 583 ft 133 kts 188°
2026-04-24 11:36 -32.92730 -60.78876 919 ft 151 kts 186°
2026-04-24 11:36 -32.93797 -60.79175 1205 ft 165 kts 195°
2026-04-24 11:36 -32.94953 -60.79486 1489 ft 175 kts 192°
2026-04-24 11:36 -32.96150 -60.79767 1765 ft 180 kts 192°
2026-04-24 11:37 -32.97457 -60.80070 1939 ft 205 kts 192°
2026-04-24 11:37 -32.98895 -60.80404 2222 ft 218 kts 192°
2026-04-24 11:37 -33.00441 -60.80518 2501 ft 230 kts 174°
2026-04-24 11:37 -33.02044 -60.80115 2779 ft 239 kts 160°
2026-04-24 11:38 -33.03482 -60.79118 3058 ft 247 kts 145°
2026-04-24 11:38 -33.04838 -60.77828 3386 ft 249 kts 142°
2026-04-24 11:38 -33.06175 -60.76495 3712 ft 251 kts 141°
2026-04-24 11:38 -33.07505 -60.75167 4035 ft 253 kts 141°
2026-04-24 11:39 -33.08863 -60.73807 4354 ft 254 kts 141°
2026-04-24 11:39 -33.10203 -60.72437 4656 ft 256 kts 140°
2026-04-24 11:39 -33.11538 -60.71066 4950 ft 257 kts 140°
2026-04-24 11:39 -33.12902 -60.69664 5241 ft 258 kts 140°
2026-04-24 11:40 -33.14257 -60.68270 5518 ft 259 kts 140°
2026-04-24 11:40 -33.15638 -60.66850 5796 ft 261 kts 140°
2026-04-24 11:40 -33.17001 -60.65448 6070 ft 261 kts 140°
2026-04-24 11:40 -33.18370 -60.64039 6344 ft 262 kts 140°
2026-04-24 11:41 -33.19753 -60.62614 6621 ft 262 kts 140°
2026-04-24 11:41 -33.21136 -60.61189 6897 ft 262 kts 140°
2026-04-24 11:41 -33.22501 -60.59781 7169 ft 263 kts 140°
2026-04-24 11:41 -33.23887 -60.58353 7446 ft 263 kts 140°
2026-04-24 11:42 -33.25272 -60.56923 7722 ft 263 kts 140°
2026-04-24 11:42 -33.26641 -60.55511 7995 ft 263 kts 140°
2026-04-24 11:42 -33.28030 -60.54076 8272 ft 262 kts 140°
2026-04-24 11:42 -33.29409 -60.52651 8547 ft 262 kts 140°
2026-04-24 11:43 -33.30770 -60.51244 8819 ft 262 kts 140°
2026-04-24 11:43 -33.32148 -60.49820 9094 ft 262 kts 139°
2026-04-24 11:43 -33.33538 -60.48433 9362 ft 262 kts 146°
2026-04-24 11:43 -33.35083 -60.47269 9647 ft 261 kts 149°
2026-04-24 11:44 -33.36624 -60.46174 9944 ft 260 kts 150°
2026-04-24 11:44 -33.38177 -60.45084 10243 ft 259 kts 150°
2026-04-24 11:44 -33.39724 -60.44004 10543 ft 258 kts 150°
2026-04-24 11:44 -33.41273 -60.42922 10843 ft 257 kts 150°
2026-04-24 11:45 -33.42802 -60.41856 11141 ft 256 kts 150°
2026-04-24 11:45 -33.44331 -60.40789 11440 ft 255 kts 149°
2026-04-24 11:45 -33.45871 -60.39715 11742 ft 254 kts 149°
2026-04-24 11:45 -33.47391 -60.38654 12041 ft 253 kts 149°
2026-04-24 11:46 -33.48908 -60.37595 12340 ft 253 kts 149°
2026-04-24 11:46 -33.50416 -60.36541 12638 ft 252 kts 149°
2026-04-24 11:46 -33.51925 -60.35486 12937 ft 252 kts 149°
2026-04-24 11:46 -33.53418 -60.34443 13233 ft 251 kts 149°
2026-04-24 11:47 -33.54927 -60.33387 13533 ft 251 kts 149°
2026-04-24 11:47 -33.56427 -60.32337 13831 ft 250 kts 149°
2026-04-24 11:47 -33.57924 -60.31289 14129 ft 250 kts 149°
2026-04-24 11:47 -33.59420 -60.30241 14428 ft 250 kts 149°
2026-04-24 11:48 -33.60933 -60.29182 14730 ft 250 kts 149°
2026-04-24 11:48 -33.62420 -60.28140 15028 ft 249 kts 149°
2026-04-24 11:48 -33.63906 -60.27098 15326 ft 249 kts 149°
2026-04-24 11:48 -33.65409 -60.26044 15627 ft 249 kts 149°
2026-04-24 11:49 -33.66886 -60.25007 15925 ft 248 kts 149°
2026-04-24 11:49 -33.68363 -60.23970 16222 ft 248 kts 149°
2026-04-24 11:49 -33.69857 -60.22921 16524 ft 247 kts 149°
2026-04-24 11:49 -33.71328 -60.21887 16821 ft 247 kts 149°
2026-04-24 11:50 -33.72819 -60.20840 17124 ft 247 kts 149°
2026-04-24 11:50 -33.74279 -60.19813 17420 ft 246 kts 149°
2026-04-24 11:50 -33.75763 -60.18769 17723 ft 246 kts 149°
2026-04-24 11:50 -33.77226 -60.17740 18022 ft 245 kts 149°
2026-04-24 11:51 -33.78686 -60.16712 18321 ft 244 kts 149°
2026-04-24 11:51 -33.80154 -60.15678 18623 ft 244 kts 149°
2026-04-24 11:51 -33.81596 -60.14663 18920 ft 243 kts 149°
2026-04-24 11:51 -33.83058 -60.13630 19223 ft 242 kts 147°
2026-04-24 11:52 -33.84239 -60.12231 19530 ft 239 kts 126°
2026-04-24 11:52 -33.85219 -60.10654 19829 ft 237 kts 123°
2026-04-24 11:52 -33.86167 -60.09034 20131 ft 236 kts 122°
2026-04-24 11:52 -33.87094 -60.07413 20432 ft 235 kts 121°
2026-04-24 11:53 -33.87999 -60.05811 20730 ft 233 kts 121°
2026-04-24 11:53 -33.88909 -60.04192 21033 ft 232 kts 121°
2026-04-24 11:53 -33.89800 -60.02602 21332 ft 230 kts 121°
2026-04-24 11:53 -33.90697 -60.01000 21636 ft 229 kts 121°
2026-04-24 11:54 -33.91576 -59.99427 21936 ft 227 kts 121°
2026-04-24 11:54 -33.92457 -59.97850 22239 ft 225 kts 121°
2026-04-24 11:54 -33.93318 -59.96307 22539 ft 222 kts 121°
2026-04-24 11:54 -33.94172 -59.94777 22839 ft 220 kts 121°
2026-04-24 11:55 -33.95022 -59.93253 23099 ft 220 kts 121°
2026-04-24 11:55 -33.95888 -59.91697 23145 ft 232 kts 121°
2026-04-24 11:55 -33.96827 -59.90008 23154 ft 251 kts 122°
2026-04-24 11:55 -33.97825 -59.88216 23156 ft 269 kts 122°
2026-04-24 11:56 -33.98896 -59.86291 23157 ft 285 kts 122°
2026-04-24 11:56 -34.00030 -59.84252 23158 ft 298 kts 122°
2026-04-24 11:56 -34.01200 -59.82149 23159 ft 309 kts 122°
2026-04-24 11:56 -34.02420 -59.79955 23160 ft 319 kts 122°
2026-04-24 11:57 -34.03668 -59.77707 23161 ft 326 kts 122°
2026-04-24 11:57 -34.04941 -59.75413 23162 ft 332 kts 122°
2026-04-24 11:57 -34.06227 -59.73095 23162 ft 337 kts 122°
2026-04-24 11:57 -34.07541 -59.70724 23162 ft 341 kts 122°
2026-04-24 11:58 -34.08855 -59.68351 23162 ft 345 kts 122°
2026-04-24 11:58 -34.10202 -59.65919 23160 ft 347 kts 122°
2026-04-24 11:58 -34.11541 -59.63498 23155 ft 349 kts 122°
2026-04-24 11:58 -34.12880 -59.61076 23155 ft 351 kts 122°
2026-04-24 11:59 -34.14241 -59.58612 23155 ft 352 kts 122°
2026-04-24 11:59 -34.15586 -59.56176 23155 ft 353 kts 122°
2026-04-24 11:59 -34.16958 -59.53690 23155 ft 353 kts 122°
2026-04-24 11:59 -34.18315 -59.51228 23155 ft 354 kts 122°
2026-04-24 12:00 -34.19672 -59.48764 23156 ft 354 kts 122°
2026-04-24 12:00 -34.21034 -59.46291 23156 ft 355 kts 122°
2026-04-24 12:00 -34.22385 -59.43806 23156 ft 355 kts 121°
2026-04-24 12:00 -34.23710 -59.41310 23156 ft 355 kts 121°
2026-04-24 12:01 -34.25037 -59.38796 23156 ft 356 kts 121°
2026-04-24 12:01 -34.26374 -59.36258 23157 ft 356 kts 121°
2026-04-24 12:01 -34.27694 -59.33752 23153 ft 356 kts 121°
2026-04-24 12:01 -34.29024 -59.31225 23152 ft 356 kts 121°
2026-04-24 12:02 -34.30352 -59.28701 23152 ft 356 kts 121°
2026-04-24 12:02 -34.31671 -59.26191 23152 ft 356 kts 121°
2026-04-24 12:02 -34.32992 -59.23676 23152 ft 356 kts 121°
2026-04-24 12:02 -34.34311 -59.21162 23153 ft 356 kts 121°
2026-04-24 12:03 -34.35651 -59.18608 23153 ft 356 kts 121°
2026-04-24 12:03 -34.36948 -59.16134 23052 ft 351 kts 121°
2026-04-24 12:03 -34.38243 -59.13662 22799 ft 347 kts 120°
2026-04-24 12:03 -34.39527 -59.11208 22438 ft 345 kts 120°
2026-04-24 12:04 -34.40818 -59.08740 22059 ft 344 kts 120°
2026-04-24 12:04 -34.42083 -59.06318 21685 ft 343 kts 120°
2026-04-24 12:04 -34.43346 -59.03902 21311 ft 340 kts 120°
2026-04-24 12:04 -34.44617 -59.01464 20930 ft 338 kts 121°
2026-04-24 12:05 -34.45858 -58.99085 20525 ft 335 kts 121°
2026-04-24 12:05 -34.47093 -58.96718 20021 ft 331 kts 122°
2026-04-24 12:05 -34.48304 -58.94395 19524 ft 327 kts 122°
2026-04-24 12:05 -34.49508 -58.92081 19024 ft 324 kts 122°
2026-04-24 12:06 -34.50695 -58.89800 18468 ft 320 kts 123°
2026-04-24 12:06 -34.51876 -58.87529 17839 ft 314 kts 123°
2026-04-24 12:06 -34.53020 -58.85326 17218 ft 309 kts 123°
2026-04-24 12:06 -34.54153 -58.83144 16593 ft 303 kts 124°
2026-04-24 12:07 -34.55249 -58.81033 15976 ft 298 kts 124°
2026-04-24 12:07 -34.56272 -58.78869 15343 ft 294 kts 115°
2026-04-24 12:07 -34.56965 -58.76593 14729 ft 290 kts 110°
2026-04-24 12:07 -34.57601 -58.74280 14098 ft 284 kts 109°
2026-04-24 12:08 -34.58223 -58.72024 13472 ft 280 kts 109°
2026-04-24 12:08 -34.58832 -58.69824 12851 ft 276 kts 109°
2026-04-24 12:08 -34.59436 -58.67638 12225 ft 272 kts 109°
2026-04-24 12:08 -34.60025 -58.65505 11607 ft 269 kts 109°
2026-04-24 12:09 -34.60612 -58.63378 10983 ft 266 kts 109°
2026-04-24 12:09 -34.61198 -58.61244 10351 ft 264 kts 108°
2026-04-24 12:09 -34.61752 -58.59172 9735 ft 262 kts 108°
2026-04-24 12:09 -34.62306 -58.57098 9206 ft 256 kts 108°
2026-04-24 12:10 -34.62849 -58.55061 8753 ft 249 kts 108°
2026-04-24 12:10 -34.63377 -58.53083 8394 ft 241 kts 108°
2026-04-24 12:10 -34.63882 -58.51187 8069 ft 234 kts 108°
2026-04-24 12:11 -34.64857 -58.47526 7420 ft 225 kts 108°
2026-04-24 12:11 -34.65337 -58.45720 7093 ft 222 kts 108°
2026-04-24 12:11 -34.65810 -58.43938 6767 ft 220 kts 108°
2026-04-24 12:11 -34.66273 -58.42197 6446 ft 219 kts 108°
2026-04-24 12:12 -34.66743 -58.40425 6117 ft 217 kts 108°
2026-04-24 12:12 -34.67199 -58.38705 5797 ft 216 kts 108°
2026-04-24 12:12 -34.67664 -58.36951 5469 ft 216 kts 108°
2026-04-24 12:12 -34.68118 -58.35239 5147 ft 215 kts 108°
2026-04-24 12:13 -34.68573 -58.33520 4823 ft 214 kts 107°
2026-04-24 12:13 -34.69029 -58.31796 4496 ft 213 kts 107°
2026-04-24 12:13 -34.69481 -58.30087 4172 ft 213 kts 107°
2026-04-24 12:13 -34.69931 -58.28385 3848 ft 212 kts 107°
2026-04-24 12:14 -34.70361 -58.26678 3520 ft 212 kts 100°
2026-04-24 12:14 -34.70057 -58.24966 3154 ft 211 kts 55°
2026-04-24 12:14 -34.68871 -58.24014 2871 ft 207 kts 12°
2026-04-24 12:14 -34.67470 -58.23848 2683 ft 200 kts
2026-04-24 12:15 -34.66169 -58.24306 2523 ft 194 kts 332°
2026-04-24 12:15 -34.65137 -58.25324 2348 ft 191 kts 312°
2026-04-24 12:15 -34.64312 -58.26581 2173 ft 189 kts 306°
2026-04-24 12:15 -34.63588 -58.27834 2106 ft 164 kts 304°
2026-04-24 12:16 -34.62991 -58.28895 1908 ft 141 kts 304°
2026-04-24 12:16 -34.62469 -58.29833 1733 ft 128 kts 304°
2026-04-24 12:16 -34.62006 -58.30663 1693 ft 112 kts 304°
2026-04-24 12:16 -34.61594 -58.31402 1688 ft 97 kts 304°
2026-04-24 12:17 -34.61239 -58.32040 1670 ft 88 kts 304°
2026-04-24 12:17 -34.60881 -58.32680 1580 ft 97 kts 304°
2026-04-24 12:17 -34.60483 -58.33396 1493 ft 106 kts 304°
2026-04-24 12:17 -34.60057 -58.34160 1401 ft 112 kts 304°
2026-04-24 12:18 -34.59624 -58.34938 1339 ft 101 kts 304°
2026-04-24 12:18 -34.59250 -58.35609 1175 ft 92 kts 304°
2026-04-24 12:18 -34.58897 -58.36242 1017 ft 88 kts 304°
2026-04-24 12:18 -34.58555 -58.36857 841 ft 88 kts 304°
2026-04-24 12:19 -34.58222 -58.37452 726 ft 87 kts 305°
2026-04-24 12:19 -34.57879 -58.38071 571 ft 89 kts 303°
2026-04-24 12:19 -34.57541 -58.38691 424 ft 87 kts 302°
2026-04-24 12:19 -34.57212 -58.39294 335 ft 84 kts 303°
2026-04-24 12:20 -34.56873 -58.39886 209 ft 86 kts 306°
2026-04-24 12:20 -34.56535 -58.40469 98 ft 84 kts 304°
2026-04-24 12:20 -34.56223 -58.41026 30 ft 73 kts 304°
2026-04-24 12:20 -34.55981 -58.41478 23 ft 54 kts 303°
2026-04-24 12:21 -34.55800 -58.41803 23 ft 36 kts 303°
2026-04-24 12:21 -34.55717 -58.41909 22 ft 12 kts
2026-04-24 12:21 -34.55685 -58.41847 22 ft 11 kts 118°
2026-04-24 12:21 -34.55734 -58.41746 22 ft 15 kts 116°
2026-04-24 12:22 -34.55780 -58.41627 22 ft 14 kts 96°
2026-04-24 12:22 -34.55729 -58.41556 22 ft 10 kts 50°
2026-04-24 12:22 -34.55742 -58.41464 22 ft 11 kts 118°
2026-04-24 12:22 -34.55776 -58.41395 22 ft 7 kts 123°
2026-04-24 12:23 -34.55782 -58.41350 22 ft 5 kts 58°
2026-04-24 12:23 -34.55756 -58.41321 22 ft 3 kts 35°
2026-04-24 12:23 -34.55748 -58.41314 22 ft 0 kts 33°